Hourly Weather Brasília

Today, 14 August, Friday

Time Temperature Precipitation Wind Pressure Humidity
00:00 +18°C° 0 mm 2 mps 666 mmHg 60%
01:00 +18°C° 0 mm 2 mps 666 mmHg 61%
02:00 +18°C° 0 mm 2 mps 665 mmHg 63%
03:00 +17°C° 0 mm 2 mps 665 mmHg 64%
04:00 +17°C° 0 mm 2 mps 665 mmHg 65%
05:00 +17°C° 0 mm 2 mps 665 mmHg 66%
06:00 +16°C° 0 mm 2 mps 665 mmHg 67%
07:00 +18°C° 0 mm 3 mps 666 mmHg 61%
08:00 +21°C° 0 mm 4 mps 666 mmHg 54%
09:00 +23°C° 0 mm 4 mps 667 mmHg 48%
10:00 +25°C° 0 mm 4 mps 668 mmHg 42%
11:00 +27°C° 0 mm 3 mps 668 mmHg 36%
12:00 +29°C° 0 mm 3 mps 668 mmHg 30%
13:00 +30°C° 0 mm 3 mps 667 mmHg 28%
14:00 +31°C° 0 mm 3 mps 667 mmHg 25%
15:00 +31°C° 0 mm 3 mps 666 mmHg 23%
16:00 +30°C° 0 mm 2 mps 666 mmHg 26%
17:00 +28°C° 0 mm 2 mps 665 mmHg 29%
18:00 +26°C° 0 mm 2 mps 665 mmHg 33%
19:00 +25°C° 0 mm 2 mps 665 mmHg 35%
20:00 +23°C° 0 mm 2 mps 665 mmHg 38%
21:00 +22°C° 0 mm 1 mps 665 mmHg 41%
22:00 +20°C° 0 mm 2 mps 665 mmHg 43%
23:00 +20°C° 0 mm 2 mps 665 mmHg 45%

Tomorrow, 15 August, Saturday

Time Temperature Precipitation Wind Pressure Humidity
00:00 +20°C° 0 mm 2 mps 665 mmHg 47%
01:00 +19°C° 0 mm 2 mps 665 mmHg 49%
02:00 +19°C° 0 mm 2 mps 665 mmHg 50%
03:00 +19°C° 0 mm 2 mps 664 mmHg 52%
04:00 +18°C° 0 mm 2 mps 664 mmHg 54%
05:00 +18°C° 0 mm 2 mps 664 mmHg 55%
06:00 +17°C° 0 mm 2 mps 664 mmHg 57%
07:00 +19°C° 0 mm 3 mps 665 mmHg 54%
08:00 +21°C° 0 mm 4 mps 666 mmHg 51%
09:00 +23°C° 0 mm 4 mps 667 mmHg 47%
10:00 +26°C° 0 mm 3 mps 667 mmHg 41%
11:00 +29°C° 0 mm 3 mps 667 mmHg 35%
12:00 +31°C° 0 mm 2 mps 667 mmHg 28%
13:00 +32°C° 0 mm 2 mps 666 mmHg 26%
14:00 +32°C° 0 mm 2 mps 666 mmHg 24%
15:00 +34°C° 0 mm 2 mps 665 mmHg 22%
16:00 +31°C° 0 mm 2 mps 665 mmHg 25%
17:00 +29°C° 0 mm 2 mps 664 mmHg 28%
18:00 +27°C° 0 mm 2 mps 664 mmHg 31%
19:00 +26°C° 0 mm 2 mps 664 mmHg 34%
20:00 +25°C° 0 mm 2 mps 664 mmHg 37%
21:00 +23°C° 0 mm 2 mps 664 mmHg 40%
22:00 +23°C° 0 mm 2 mps 664 mmHg 41%
23:00 +23°C° 0 mm 2 mps 665 mmHg 41%

Day after tomorrow, 16 August, Sunday

Time Temperature Precipitation Wind Pressure Humidity
00:00 +21°C° 0 mm 3 mps 665 mmHg 42%
01:00 +21°C° 0 mm 2 mps 664 mmHg 43%
02:00 +20°C° 0 mm 2 mps 664 mmHg 45%
03:00 +20°C° 0 mm 2 mps 664 mmHg 46%
04:00 +19°C° 0 mm 2 mps 664 mmHg 47%
05:00 +19°C° 0 mm 2 mps 664 mmHg 47%
06:00 +20°C° 0 mm 1 mps 664 mmHg 47%
07:00 +21°C° 0 mm 2 mps 665 mmHg 43%
08:00 +24°C° 0 mm 2 mps 666 mmHg 39%
09:00 +26°C° 0 mm 3 mps 667 mmHg 35%
10:00 +28°C° 0 mm 2 mps 667 mmHg 31%
11:00 +31°C° 0 mm 2 mps 667 mmHg 27%
12:00 +34°C° 0 mm 2 mps 667 mmHg 24%
13:00 +35°C° 0 mm 2 mps 666 mmHg 22%
14:00 +34°C° 0 mm 1 mps 666 mmHg 20%
15:00 +35°C° 0 mm 1 mps 665 mmHg 19%
16:00 +33°C° 0 mm 1 mps 665 mmHg 21%
17:00 +31°C° 0 mm 1 mps 664 mmHg 24%
18:00 +29°C° 0 mm 1 mps 664 mmHg 26%
19:00 +28°C° 0 mm 1 mps 664 mmHg 28%
20:00 +27°C° 0 mm 1 mps 664 mmHg 30%
21:00 +26°C° 0 mm 1 mps 664 mmHg 33%
22:00 +25°C° 0 mm 1 mps 664 mmHg 35%
23:00 +24°C° 0 mm 1 mps 664 mmHg 37%

17 August, Monday

Time Temperature Precipitation Wind Pressure Humidity
00:00 +23°C° 0 mm 1 mps 664 mmHg 40%
01:00 +23°C° 0 mm 1 mps 664 mmHg 40%
02:00 +23°C° 0 mm 2 mps 664 mmHg 40%
03:00 +23°C° 0 mm 2 mps 664 mmHg 41%
04:00 +23°C° 0 mm 2 mps 664 mmHg 42%
05:00 +21°C° 0 mm 2 mps 664 mmHg 43%
06:00 +22°C° 0 mm 1 mps 664 mmHg 44%
07:00 +24°C° 0 mm 2 mps 665 mmHg 40%
08:00 +26°C° 0 mm 3 mps 666 mmHg 36%
09:00 +28°C° 0 mm 3 mps 666 mmHg 32%
10:00 +30°C° 0 mm 3 mps 666 mmHg 28%
11:00 +33°C° 0 mm 3 mps 666 mmHg 25%
12:00 +35°C° 0 mm 3 mps 667 mmHg 21%
13:00 +35°C° 0 mm 3 mps 666 mmHg 20%
14:00 +36°C° 0 mm 2 mps 665 mmHg 19%
15:00 +36°C° 0 mm 2 mps 665 mmHg 17%
16:00 +35°C° 0 mm 2 mps 664 mmHg 20%
17:00 +32°C° 0 mm 1 mps 664 mmHg 22%
18:00 +30°C° 0 mm 1 mps 663 mmHg 24%
19:00 +29°C° 0 mm 1 mps 664 mmHg 25%
20:00 +29°C° 0 mm 1 mps 664 mmHg 27%
21:00 +28°C° 0 mm 1 mps 664 mmHg 28%
22:00 +27°C° 0 mm 1 mps 664 mmHg 28%
23:00 +27°C° 0 mm 1 mps 664 mmHg 29%

18 August, Tuesday

Time Temperature Precipitation Wind Pressure Humidity
00:00 +26°C° 0 mm 1 mps 664 mmHg 30%
01:00 +26°C° 0 mm 1 mps 664 mmHg 31%
02:00 +25°C° 0 mm 1 mps 663 mmHg 31%
03:00 +25°C° 0 mm 1 mps 663 mmHg 32%
04:00 +24°C° 0 mm 2 mps 663 mmHg 34%
05:00 +23°C° 0 mm 2 mps 663 mmHg 37%
06:00 +23°C° 0 mm 2 mps 663 mmHg 39%
07:00 +25°C° 0 mm 3 mps 664 mmHg 36%
08:00 +27°C° 0 mm 4 mps 665 mmHg 34%
09:00 +29°C° 0 mm 4 mps 666 mmHg 31%
10:00 +32°C° 0 mm 4 mps 666 mmHg 28%
11:00 +34°C° 0 mm 4 mps 666 mmHg 24%
12:00 +35°C° 0 mm 3 mps 666 mmHg 21%
13:00 +36°C° 0 mm 3 mps 665 mmHg 20%
14:00 +36°C° 0 mm 3 mps 665 mmHg 19%
15:00 +36°C° 0 mm 3 mps 664 mmHg 18%
16:00 +35°C° 0 mm 3 mps 664 mmHg 21%
17:00 +33°C° 0 mm 3 mps 663 mmHg 23%
18:00 +30°C° 0 mm 3 mps 663 mmHg 26%
19:00 +29°C° 0 mm 3 mps 663 mmHg 28%
20:00 +28°C° 0 mm 2 mps 664 mmHg 30%
21:00 +27°C° 0 mm 2 mps 664 mmHg 32%
22:00 +26°C° 0 mm 2 mps 664 mmHg 33%
23:00 +26°C° 0 mm 2 mps 664 mmHg 35%

19 August, Wednesday

Time Temperature Precipitation Wind Pressure Humidity
00:00 +25°C° 0 mm 2 mps 664 mmHg 36%
01:00 +24°C° 0 mm 2 mps 664 mmHg 38%
02:00 +24°C° 0 mm 2 mps 663 mmHg 40%
03:00 +23°C° 0 mm 2 mps 663 mmHg 42%
04:00 +21°C° 0 mm 2 mps 663 mmHg 42%
05:00 +21°C° 0 mm 2 mps 663 mmHg 42%
06:00 +20°C° 0 mm 3 mps 664 mmHg 42%
07:00 +22°C° 0 mm 3 mps 665 mmHg 39%
08:00 +25°C° 0 mm 4 mps 665 mmHg 36%
09:00 +27°C° 0 mm 4 mps 666 mmHg 32%
10:00 +29°C° 0 mm 4 mps 667 mmHg 29%
11:00 +31°C° 0 mm 3 mps 667 mmHg 26%
12:00 +34°C° 0 mm 3 mps 667 mmHg 22%
13:00 +35°C° 0 mm 3 mps 666 mmHg 21%
14:00 +35°C° 0 mm 3 mps 665 mmHg 20%
15:00 +36°C° 0 mm 2 mps 665 mmHg 18%
16:00 +34°C° 0 mm 2 mps 664 mmHg 21%
17:00 +32°C° 0 mm 2 mps 664 mmHg 23%
18:00 +30°C° 0 mm 2 mps 663 mmHg 26%
19:00 +28°C° 0 mm 2 mps 664 mmHg 29%
20:00 +27°C° 0 mm 2 mps 664 mmHg 32%
21:00 +25°C° 0 mm 1 mps 664 mmHg 35%
22:00 +25°C° 0 mm 1 mps 664 mmHg 36%
23:00 +24°C° 0 mm 1 mps 664 mmHg 38%
Show more